Flag for U.S.A. Weather past 2 weeks in Raleigh, North Carolina, U.S.A.

Now
36 °F

Light rain. Fog.


Feels Like: 30 °F
Forecast: 37 / 41 °F
Wind: 8 mph from Northeast

Location: Raleigh-Durham International Airport

Current Time: Dec 22, 2014 at 8:46:22 AM

Latest Report: Dec 22, 2014 at 7:51 AM


Visibility: 2 mi

Pressure: 30.16 "Hg

Humidity: 89%

Dew point: 33 °F

Location of RaleighLocation

Historic Weather in Raleigh — Graph

°F

Raleigh temperature yesterday

Maximum temperature yesterday: 50 °F (at 2:51 PM)
Minimum temperature yesterday: 38 °F (at 12:51 AM)
Average temperature yesterday: 42 °F

Past Weeks' High & Low Weather Summary

 TemperatureHumidityPressure
High60 °F (Dec 13, 2:51 PM)93% (Dec 9, 8:56 AM)30.46 "Hg (Dec 9, 8:56 AM)
Low26 °F (Dec 12, 6:51 AM)20% (Dec 12, 2:51 PM)29.90 "Hg (Dec 16, 1:51 PM)
Average42 °F65%30.13 "Hg
* Reported Dec 7 6:51 AM — Dec 22 6:51 AM, Raleigh, Weather by CustomWeather, © 2014

Note: Actual official high and low records may vary slightly from our data, if they occured in-between our weather recording intervals... More about our weather records

Advertising

Raleigh weather history for previous 24 hours

 ConditionsComfort  
Time TempWeatherWind HumidityBarometerVisibility
6:51 AM
Dec 22
36 °FLight rain. Fog.6 mph89%30.17 "Hg3 mi
5:51 AM36 °FLight rain. Fog.12 mph89%30.15 "Hg6 mi
4:51 AM36 °FRain. Fog.9 mph89%30.15 "Hg3 mi
3:51 AM37 °FLight rain. Overcast.7 mph86%30.16 "Hg7 mi
2:51 AM37 °FLight rain. Overcast.10 mph86%30.19 "Hg8 mi
1:51 AM38 °FDrizzle. Overcast.10 mph83%30.20 "Hg10 mi
12:51 AM40 °FLight rain. Overcast.8 mph73%30.22 "Hg10 mi
11:51 PM
Dec 21
41 °FOvercast.6 mph74%30.23 "Hg10 mi
10:51 PM43 °FOvercast.7 mph62%30.25 "Hg10 mi
9:51 PM43 °FOvercast.7 mph62%30.24 "Hg10 mi
8:51 PM44 °FOvercast.7 mph63%30.25 "Hg10 mi
7:51 PM45 °FOvercast.8 mph63%30.25 "Hg10 mi
6:51 PM45 °FOvercast.6 mph65%30.25 "Hg10 mi
5:51 PM46 °FMostly cloudy.3 mph63%30.26 "Hg10 mi
4:51 PM46 °FMostly cloudy.6 mph63%30.24 "Hg10 mi
3:51 PM48 °FBroken clouds.8 mph59%30.23 "Hg10 mi
2:51 PM50 °FScattered clouds.6 mph54%30.24 "Hg10 mi
1:51 PM49 °FScattered clouds.6 mph57%30.24 "Hg10 mi
12:51 PM46 °FPartly sunny.No wind66%30.27 "Hg10 mi
11:51 AM44 °FOvercast.3 mph71%30.30 "Hg10 mi
10:51 AM42 °FOvercast.6 mph73%30.33 "Hg10 mi
9:51 AM40 °FOvercast.5 mph80%30.33 "Hg7 mi
8:51 AM39 °FOvercast.3 mph79%30.33 "Hg7 mi
Weather by CustomWeather, © 2014

See weather overviewHow to use our weather pages